Погода Марьина Горка

Погода Марьина Горка : погода сейчас, прогноз погоды и архив. Всё, что Вы хотите узнать о погоде Марьина Горка!

Хотите узнать прогноз погоды Марьина Горка? Тогда Вам сюда: Погода Марьина Горка

Поиск расширенной информации на нашем сайте:

Другие новости

Новости СМИ2

Главная страница сайта

Новости сайта

03.07.2017

Напоминаем, что на нашем специализированном сайте Метеоцентр.Азия вы можете получить высокодетализированные автоматические прогнозы погоды по пунктам России, СНГ и мира в авиационном формате (включающие направление и скорость ветра, видимость, явления погоды, количество и форму облачности, нижнюю и верхнюю границу облачности).


Погода Марьина Горка - сегодня

Время (UTC), дата Ветер
(°,м/с) 
Видим.   Явления Облачность Т
(°С)
Тd
(°С)
f(%) Тe
(°С)
Pmin
(гПа)
dP
(гПа)
Po
(мм)
O2
(г/м3)
Тmin Tmax R s Состояние
почвы
21 19.07.17 170 (Ю) 15000 м    8/8 2000 м средняя 
[Ac und]
+15.7 +13.5 87 +23  1017.4  -0.2  747  282           
00 20.07.17 010 (С) 8000 м  дымка  8/8 2000 м средняя 
[Ac und]
+13.2 +12.6 96 +19  1016.7  -0.8  747  285           
03 20.07.17 090 (В) 9000 м  дымка  8/8 2000 м средняя 
[Ac und]
+14 +12.9 93 +20  1015.9  -0.8  746  283           
06 20.07.17 тихо ()   18000 м    6/3 2000 м средняя, верхняя 
[Ac und|Ci fib]
+19.4 +14 71 +27  1015  -0.5  746  278  +12.1         
09 20.07.17 220 (ЮЗ) 22000 м    8/6 2000 м средняя, верхняя 
[Ac und|Ci fib]
+21.8 +13.4 59 +28  1014.3  -0.5  745  276           
12 20.07.17 230 (ЮЗ) 28000 м    6/5 600 м верхняя 
[Cu med, cong|Ci fib]
+24.6 +10.5 41 +27  1012.9  -1.2  745  273           
15 20.07.17 240 (ЮЗ) 28000 м    4/3 600 м верхняя 
[Cu med, cong|Ci fib]
+24.4 +12 46 +29  1011.6  -1.3  744  273           
18 20.07.17 210 (ЮЗ) 22000 м    4/3 600 м средняя 
[Cu med, cong|Ac und]
+21.7 +12.8 57 +27  1011.5  -0.2  743  275    +25.3       
21 20.07.17 160 (Ю) 16000 м    ясно 
+16.5 +13.4 82 +24  1012.4  0.5  744  280           
00 21.07.17 010 (С) 9000 м  дымка  ясно 
+13.6 +12.3 92 +20  1012.6  744  283           
03 21.07.17 тихо ()   5000 м  дымка  6/6 2000 м средняя 
[Ac und]
+12.6 +12.4 99 +17  1012.8  0.1  744  284           
06 21.07.17 060 (СВ) 13000 м    6/6 2000 м средняя 
[Ac und]
+19.4 +15.7 79 +30  1012.9  0.6  744  277  +12.2         
09 21.07.17 050 (СВ) 19000 м    8/3 600 м средняя, верхняя 
[Cu med, cong|Ac und|Ci fib]
+22.6 +15.9 66 +33  1013.3  0.6  745  274           
12 21.07.17 050 (СВ) 22000 м    8/5 600 м средняя 
[Cu med, cong|Ac und]
+24.3 +14.7 55 +33  1013.3  0.1  745  273           
15 21.07.17 060 (СВ) 22000 м    9/3 600 м средняя 
[Cu med, cong|Ac und]
+24.3 +15.2 57 +34  1012.9  -0.4  745  272           
18 21.07.17 050 (СВ) 22000 м    9/3 600 м средняя, верхняя 
[Sc|Ac und|Cs]
+21.5 +13.7 61 +28  1013.2  0.1  745  275    +25.6       
21 21.07.17 060 (СВ) 18000 м    9/5 600 м средняя 
[Sc|Ac und]
+18.2 +12 67 +23  1013.6  0.2  745  279           
00 22.07.17 070 (В) 7000 м  слаб. дождь  10/8 300 м средняя 
[Frnb|As op]
+15.1 +13.8 92 +23  1013.5  -0.3  745  281         
03 22.07.17 060 (СВ) 7000 м  дымка{дождь}  10/6 300 м средняя 
[St|As op]
+14.5 +13.5 94 +21  1013.1  -0.5  744  282         
06 22.07.17 060 (СВ) 12000 м  {дождь}  9/6 600 м средняя 
[Sc|Ac und]
+16.7 +13.2 80 +24  1014.6  1.7  745  280  +14.5       
09 22.07.17 110 (В) 23000 м    4/3 600 м средняя 
[Cu med, cong|Ac und]
+21.4 +13.1 59 +27  1015.1  0.8  746  276           
12 22.07.17 040 (СВ) 26000 м    4/3 600 м средняя 
[Cu med, cong|Ac und]
+23.4 +10.1 43 +25  1015.4  0.4  746  275           
15 22.07.17 020 (С) 30000 м    4/4 600 м 
[Cu med, cong]
+23.9 +9.9 41 +25  1015.4  746  275           
18 22.07.17 050 (СВ) 23000 м    3/3 600 м 
[Sc diur, vesp]
+20.5 +10.9 54 +23  1016.3  0.7  747  278    +24.5       
21 22.07.17 050 (СВ) 13000 м    ясно 
+14.3 +12 86 +20  1017.5  0.7  747  284           
Время (UTC), дата Ветер
(°,м/с) 
Видим.   Явления Облачность Т
(°С)
Тd
(°С)
f(%) Тe
(°С)
Pmin
(гПа)
dP
(гПа)
Po
(мм)
O2
(г/м3)
Тmin Tmax R s Состояние
почвы

Для получения пояснительной информации подведите курсор к названию столбца.

ПОГОДА Марьина Горка - архив

Всё, что Вы хотите узнать о погоде Марьина Горка - удобно и подробно!

Выберите нужную дату (начиная с 1 января 2015* года) и нажмите кнопку "Найти".
Будут отображены архивные сводки погоды по пункту Марьина Горка, начиная с указанной даты.


Отображать данные в формате CSV (для использования в таблицах Excel)


Внимание! Наш архив погоды предназначен исключительно для личного некоммерческого использования в познавательных целях. Если Вам необходимы официальные справки о состоянии погоды (для производственных, юридических, коммерческих и т.п. целей), обращайтесь в органы Росгидромета.

*Примечание: данная дата относится к архиву по метеостанциям СССР (Россия, СНГ, Балтия).
Архив по метеостанциям Зарубежной Европы и Азии (кроме Китая) хранится 10 дней, по другим регионам земного шара (Китай, Африка, Америка, Австралия, Океания) - 1 день.

Марьина Горка - район местоположения метеостанции


Название, широта, долгота, высота метеостанции:
Марьина Горка 55.4°ш. 28.1°д. 177 м над ур. моря [Беларусь]

Дополнительная информация

В oтличие oт бoльшинства пoгoдных сайтoв мы публикуем пoдрoбную метеoинфoрмацию в детальнoм прoфессиoнальнoм фoрмате.

Характеристики температуры и влажнoсти вoздуха измеряются на высoте 2 м в тени вдали oт зданий и деревьев.
Скoрoсть ветра измеряется на высoте 10 м (на урoвне рoста челoвека скoрoсть ветра ниже в 1.5-2 раза). Если метеoстанция нахoдится в гoрoде или в лесу, тo скoрoсть ветра занижена на 2-4 м/с пo сравнению с oткрытым местoм. Скoрoсть ветра над акватoриями крупных рек и oзёр, а также на вершинах хoлмoв на 2-5 м/с выше, чем в oбычных услoвиях.
Атмoсфернoе давление в разных тoчках местнoсти мoжет значительнo oтличаться oт давления на метеoстанции, в зависимoсти oт услoвий рельефа (при пoдъёме на 10 м давление пoнижается примернo на 1 мм рт.ст.).